Home   Weather   Chita   Past weeks
Flag for Russia

Past Weather in Chita, Russia — Yesterday and Last 2 Weeks

Now
34 °F

Clear.


Feels Like: 29 °F
Forecast: 40 / 28 °F
Wind: 6 mph from Northeast

Location: Chita Airport

Current Time: Oct 19, 2019 at 11:26:27 am

Latest Report: Oct 19, 2019 at 10:30 am


Visibility: N/A

Pressure: 29.83 "Hg (27.45 "Hg at 666m altitude)

Humidity: 60%

Dew Point: 21 °F

Location of ChitaLocation

Past Weather in Chita — Graph

°F

Chita Temperature Yesterday

Maximum temperature yesterday: 57 °F (at 4:00 pm)
Minimum temperature yesterday: 14 °F (at 5:00 am)
Average temperature yesterday: 33 °F

High & Low Weather Summary for the Past Weeks

 TemperatureHumidityPressure
High61 °F (Oct 5, 3:30 pm)86% (Oct 10, 6:30 pm)30.48 "Hg (Oct 10, 6:30 pm)
Low9 °F (Oct 11, 5:30 am)12% (Oct 17, 7:00 pm)29.53 "Hg (Oct 9, 4:00 am)
Average36 °F48%30.09 "Hg
* Reported Oct 4 10:00 am — Oct 19 10:00 am, Chita. Weather by CustomWeather, © 2019

Note: Actual official high and low records may vary slightly from our data, if they occured in-between our weather recording intervals... More about our weather records

Advertising

Chita Weather History for the Previous 24 Hours

Scroll right to see more
 ConditionsComfort  
Time TempWeatherWind HumidityBarometerVisibility
10:00 am
Sat, Oct 19
32 °FClear.3 mph60%29.83 "HgN/A
9:30 am30 °FClear.3 mph64%29.86 "HgN/A
9:00 am27 °FClear.1 mph69%29.86 "HgN/A
8:30 am23 °FClear.1 mph80%29.86 "HgN/A
8:00 am21 °FClear.1 mph80%29.86 "HgN/A
7:30 am23 °FClear.1 mph80%29.86 "HgN/A
7:00 am23 °FClear.No wind74%29.86 "HgN/A
6:30 am25 °FClear.3 mph69%29.86 "HgN/A
6:00 am23 °FClear.No wind74%29.86 "HgN/A
5:30 am25 °FClear.1 mph69%29.86 "HgN/A
5:00 am21 °FClear.1 mph80%29.86 "HgN/A
4:30 am21 °FClear.1 mph74%29.86 "HgN/A
4:00 am27 °FClear.1 mph64%29.86 "HgN/A
3:30 am25 °FCold.3 mph69%29.89 "HgN/A
3:00 am23 °FCold.No wind74%29.89 "HgN/A
2:30 am25 °FCold.1 mph63%29.89 "HgN/A
2:00 am23 °FCold.3 mph74%29.89 "HgN/A
1:30 am23 °FCold.No wind74%29.89 "HgN/A
1:00 am25 °FCold.No wind69%29.89 "HgN/A
12:30 am30 °FChilly.1 mph55%29.89 "HgN/A
12:00 am27 °FChilly.1 mph69%29.89 "HgN/A
11:30 pm
Fri, Oct 18
28 °FChilly.No wind59%29.89 "HgN/A
11:00 pm28 °FClear.1 mph59%29.89 "HgN/A
10:30 pm30 °FClear.6 mph55%29.89 "HgN/A
10:00 pm30 °FClear.6 mph51%29.89 "HgN/A
9:30 pm30 °FClear.6 mph55%29.89 "HgN/A
9:00 pm32 °FClear.6 mph51%29.89 "HgN/A
8:30 pm34 °FClear.3 mph44%29.89 "HgN/A
8:00 pm36 °FClear.3 mph41%29.89 "HgN/A
7:30 pm45 °FClear.1 mph29%29.89 "HgN/A
7:00 pm50 °FClear.3 mph22%29.89 "HgN/A
6:30 pm54 °FClear.3 mph18%29.86 "HgN/A
6:00 pm52 °FClear.6 mph20%29.86 "HgN/A
5:30 pm55 °FClear.3 mph15%29.86 "HgN/A
5:00 pm57 °FClear.3 mph14%29.86 "HgN/A
4:30 pm57 °FClear.3 mph14%29.89 "HgN/A
4:00 pm57 °FClear.6 mph14%29.89 "HgN/A
3:30 pm55 °FClear.6 mph14%29.89 "HgN/A
3:00 pm54 °FClear.3 mph15%29.89 "HgN/A
2:30 pm52 °FClear.1 mph17%29.92 "HgN/A
2:00 pm50 °FClear.1 mph20%29.92 "HgN/A
1:30 pm48 °FClear.1 mph21%29.92 "HgN/A
1:00 pm45 °FClear.1 mph25%29.95 "HgN/A
12:30 pm41 °FClear.1 mph28%29.95 "HgN/A
12:00 pm39 °FClear.1 mph30%29.95 "HgN/A
11:30 am36 °FClear.No wind32%29.98 "HgN/A
11:00 am34 °FClear.1 mph44%29.98 "HgN/A
Weather by CustomWeather, © 2019

See weather overview